This is the latest recevied weather packets stored in our database for station/object KN6CW-3. If no packets are shown the sender has not sent any weather packets the latest 10 day(s).
| Time | Temp. | Humidity | Pressure | Rain* | Wind** | Luminosity | Snow |
|---|---|---|---|---|---|---|---|
| 1777771538 | 6.11° C | 61% | 1013 hPa | 0 mm | - | 0 W/m² | - |
| 1777771238 | 6.11° C | 62% | 1013 hPa | 0 mm | - | 0 W/m² | - |
| 1777770939 | 6.11° C | 61% | 1013 hPa | 0 mm | - | 0 W/m² | - |
| 1777770637 | 6.11° C | 61% | 1013 hPa | 0 mm | - | 0 W/m² | - |
| 1777770337 | 6.11° C | 60% | 1013 hPa | 0 mm | - | 0 W/m² | - |
| 1777770037 | 6.11° C | 61% | 1013 hPa | 0 mm | - | 0 W/m² | - |
| 1777769737 | 6.67° C | 60% | 1012.8 hPa | 0 mm | - | 0 W/m² | - |
| 1777769436 | 6.67° C | 59% | 1012.8 hPa | 0 mm | - | 0 W/m² | - |
| 1777769136 | 6.67° C | 59% | 1012.7 hPa | 0 mm | - | 0 W/m² | - |
| 1777768836 | 6.67° C | 59% | 1012.7 hPa | 0 mm | - | 0 W/m² | - |
| 1777768535 | 6.67° C | 58% | 1012.6 hPa | 0 mm | - | 0 W/m² | - |
| 1777768235 | 6.67° C | 59% | 1012.6 hPa | 0 mm | - | 0 W/m² | - |
| 1777767935 | 6.67° C | 57% | 1012.5 hPa | 0 mm | - | 0 W/m² | - |
| 1777767635 | 6.67° C | 57% | 1012.5 hPa | 0 mm | - | 0 W/m² | - |
| 1777767335 | 7.22° C | 56% | 1012.5 hPa | 0 mm | - | 0 W/m² | - |
| 1777767034 | 7.22° C | 57% | 1012.4 hPa | 0 mm | - | 0 W/m² | - |
| 1777766734 | 7.22° C | 54% | 1012.4 hPa | 0 mm | - | 0 W/m² | - |
| 1777766434 | 7.22° C | 55% | 1012.4 hPa | 0 mm | - | 0 W/m² | - |
| 1777766133 | 7.22° C | 54% | 1012.4 hPa | 0 mm | - | 0 W/m² | - |
| 1777765833 | 7.22° C | 55% | 1012.3 hPa | 0 mm | - | 5 W/m² | - |
| 1777765533 | 7.22° C | 55% | 1012.2 hPa | 0 mm | - | 7 W/m² | - |
| 1777765233 | 7.22° C | 54% | 1012.2 hPa | 0 mm | - | 12 W/m² | - |
| 1777764932 | 7.22° C | 56% | 1012.2 hPa | 0 mm | - | 18 W/m² | - |
| 1777764632 | 7.78° C | 54% | 1012.2 hPa | 0 mm | - | 25 W/m² | - |
| 1777764332 | 7.78° C | 57% | 1012.2 hPa | 0 mm | - | 26 W/m² | - |
* Rain latest hour (hover to see other rain measurements)
** Current wind speed in m/s (hover to see current wind gust speed)